Flag for Czech Republic Weather past 2 weeks in Ostrava, Czech Republic

Now
59 °F

Rain. Overcast.


Feels Like: 58 °F
Forecast: 51 / 67 °F
Wind: 5 mph from Northwest

Location: Ostrava / Mosnov

Current Time: Sep 4, 2015 at 4:32:41 AM

Latest Report: Sep 4, 2015 at 3:00 AM


Visibility: 4 mi

Pressure: 29.88 "Hg

Humidity: 96%

Dew point: 57 °F

Location of OstravaLocation

Historic Weather in Ostrava — Graph

°F

Ostrava temperature yesterday

Maximum temperature yesterday: 73 °F (at 3:00 PM)
Minimum temperature yesterday: 54 °F (at 6:00 AM)
Average temperature yesterday: 64 °F

Past Weeks' High & Low Weather Summary

 TemperatureHumidityPressure
High93 °F (Aug 31, 2:00 PM)99% (Aug 30, 6:00 AM)30.29 "Hg (Aug 30, 6:00 AM)
Low47 °F (Aug 21, 5:00 AM)25% (Aug 31, 2:00 PM)29.72 "Hg (Sep 1, 6:00 PM)
Average69 °F63%30.05 "Hg
* Reported Aug 20 3:00 AM — Sep 4 3:00 AM, Ostrava, Weather by CustomWeather, © 2015

Note: Actual official high and low records may vary slightly from our data, if they occured in-between our weather recording intervals... More about our weather records

Advertising

Ostrava weather history for previous 24 hours

 ConditionsComfort  
Time TempWeatherWind HumidityBarometerVisibility
3:00 AM
Fri, Sep 4
59 °FRain. Overcast.5 mph96%29.88 "Hg4 mi
2:00 AM60 °FThundershowers. Overcast.3 mph92%29.88 "Hg4 mi
1:00 AM62 °FOvercast.5 mph83%29.86 "Hg7 mi
12:00 AM62 °FOvercast.3 mph84%29.88 "Hg7 mi
10:00 PM
Thu, Sep 3
64 °FOvercast.3 mph74%29.89 "Hg12 mi
9:00 PM65 °FOvercast.2 mph70%29.90 "Hg12 mi
8:00 PM67 °FOvercast.3 mph64%29.89 "Hg19 mi
7:00 PM69 °FOvercast.3 mph59%29.89 "Hg25 mi
6:00 PM71 °FOvercast.5 mph53%29.89 "Hg25 mi
5:00 PM72 °FOvercast.5 mph48%29.89 "Hg25 mi
4:00 PM72 °FOvercast.3 mph45%29.91 "Hg25 mi
3:00 PM73 °FOvercast.5 mph41%29.91 "Hg22 mi
2:00 PM72 °FPartly sunny.3 mph38%29.94 "Hg22 mi
1:00 PM71 °FScattered clouds.3 mph44%29.96 "Hg12 mi
12:00 PM69 °FScattered clouds.5 mph50%29.96 "Hg12 mi
11:00 AM66 °FScattered clouds.3 mph57%29.98 "Hg12 mi
10:00 AM64 °FPartly sunny.N/A59%30.00 "Hg12 mi
9:00 AM61 °FPartly sunny.N/A65%30.00 "Hg12 mi
8:00 AM57 °FPartly sunny.3 mph78%30.01 "Hg12 mi
7:00 AM56 °FPassing clouds.2 mph83%30.01 "Hg12 mi
6:00 AM54 °FPassing clouds.N/A83%30.03 "Hg12 mi
5:00 AM56 °FOvercast.3 mph78%30.01 "Hg16 mi
4:00 AM58 °FOvercast.1 mph78%30.01 "Hg16 mi
Weather by CustomWeather, © 2015

See weather overviewHow to use our weather pages